Location: Unspecified
(47.2333°N, 39.7000°E)
Time: 20:20:23
(UTC+00:00)

ISS - Pass Details

Date: 11 March 2021
Orbit: 418 x 422 km, 51.6° (Epoch: 12 April)

Event Time Altitude Azimuth Distance (km) Brightness Sun altitude
Exits shadow 02:27:49 25° 251° (WSW) 878 -2.7 -13.4°
Maximum altitude 02:28:49 31° 218° (SW) 766 -2.8 -13.3°
Drops below altitude 10° 02:31:49 10° 154° (SSE) 1,491 -0.7 -12.8°
Sets 02:34:02 0° 144° (SE) 2,351 0.5 -12.4°
